Regional Weather Roundup
Issued by NWS Upton, NY

Current Version | Previous Version | Graphics & Text | Print | Product List | Glossary Off
Versions: 1 2 3 4 5 6 7 8 9 10 11 12 13 14 15 16 17 18 19 20 21 22 23 24 25 26 27

000
ASUS41 KOKX 212305
RWROKX

Regional Weather Roundup
National Weather Service New York NY
600 PM EST WED FEB 21 2018

Note: "FAIR" indicates few or no clouds below 12,000 feet with no
significant weather and/or obstructions to visibility.

NYZ071-072-176-178-NJZ106-104-220000-
New York City Metro Area

CITY           SKY/WX    TMP DP  RH WIND       PRES   REMARKS
Central Park   FAIR      74  60  61 VRB7G18   30.25R
Bronx Bot Gard   N/A     73  57  56 S3        30.23R
Bronx Lehman C   N/A     75  59  57 SW8         N/A
LaGuardia Arpt FAIR      75  59  57 SW9       30.22R
Queens College   N/A     72  59  64 SW8         N/A
Kennedy Intl   FAIR      53  49  86 S6        30.25R
Breezy Point     N/A     50 N/A N/A S2          N/A
Brooklyn Coll    N/A     72  59  64 S7          N/A
Staten Island    N/A    N/A N/A N/A SW7         N/A
Newark/Liberty FAIR      74  60  61 SW10      30.22R
Teterboro      FAIR      75  59  57 SW9       30.21R
$$

NYZ177-179-078>081-220000-
Long Island New York

CITY           SKY/WX    TMP DP  RH WIND       PRES   REMARKS
Jones Beach      N/A     48 N/A N/A SW6         N/A
Wantagh          N/A     52  48  87 SW6         N/A
Hempstead        N/A     59  54  82 S2        30.28R
Matinecock Pt    N/A     72 N/A N/A SW9G15      N/A
Farmingdale    FAIR      56  51  84 SW6       30.25R
MacArthur/ISP  FAIR      54  52  93 SW12      30.25R
Shirley        FAIR      54  52  93 SW7       30.26R
Mt Sinai Harb    N/A     59 N/A N/A S9          N/A
Westhampton    FAIR      50  50 100 SW8       30.27R
East Hampton   CLOUDY    48  48  98 SW10      30.24R FOG
Southold         N/A     54  50  87 S9          N/A
Montauk          N/A     51  50  96 SW12G21   30.24S
$$

NYZ052-065-067-220000-
Hudson Valley

CITY           SKY/WX    TMP DP  RH WIND       PRES   REMARKS
White Plains   FAIR      74  57  55 SW6       30.22R
Larchmont Harb   N/A     66 N/A N/A S12         N/A
Croton On Huds   N/A     64 N/A N/A W2          N/A
Somers           N/A     72  57  60 W2          N/A
Brewster         N/A     72  54  53 W3          N/A
Newburgh       MOCLDY    73  59  60 W12       30.23R
Montgomery     MOCLDY    66  53  63 NW16      30.24R
Otisville        N/A     63  52  67 NW8         N/A
Warwick          N/A     66  54  63 NW15        N/A
Suffern          N/A     73  57  56 SW2         N/A
Poughkeepsie   CLOUDY    72  55  55 NW20G25   30.23R
Albany         CLOUDY    52  44  74 W16       30.32R
$$

NJZ001-105-106-008-010-013-015-019>022-104-220000-
New Jersey

CITY           SKY/WX    TMP DP  RH WIND       PRES   REMARKS
Newark/Liberty FAIR      74  60  61 SW10      30.22R
Teterboro      FAIR      75  59  57 SW9       30.21R
Caldwell       FAIR      75  59  57 VRB3      30.22R
Somerville     FAIR      73  60  63 S5        30.21R
Linden         FAIR      74  59  59 SW3       30.23R
Perth Amboy      N/A     73 N/A N/A SW10G17     N/A
Sussex         LGT RAIN  65  54  67 NW14G25   30.28R
Andover          N/A     66  57  72 CALM      30.24R
Trenton        FAIR      73  61  65 SW13      30.24R
Millville      FAIR      70  60  70 SW8       30.29R
Atlantic City  FAIR      72  61  68 SW7       30.29R
Wrightstown    CLOUDY    73  61  68 SW8       30.23R
Toms River     FAIR      71  62  73 SW7       30.28R
Belmar         FAIR      74  61  63 S8        30.27R
$$

PAZ047>061-062-071-220000-
Eastern Pennsylvania

CITY           SKY/WX    TMP DP  RH WIND       PRES   REMARKS
Philadelphia   FAIR      72  60  66 SW12      30.26R
Allentown      CLOUDY    75  57  53 SW5       30.22R
Scranton       CLOUDY    53  46  77 N16       30.37R
$$

CTZ002-004>006-009-010-012-RIZ004-006-007-MAZ004-011-015-220000-
Southern New England

 In CT

CITY           SKY/WX    TMP DP  RH WIND       PRES   REMARKS
Bradley Intl   FAIR      70  54  56 NW15G25   30.21R
Hartford       FAIR      69  58  67 S7        30.18R
Danbury        FAIR      73  56  54 SW10      30.23R
Wtrbury/Oxford FAIR      73  56  54 W7        30.22R
Norwalk Harbor   N/A     57 N/A N/A SW14        N/A
Bridgeport     FAIR      59  51  75 SW9       30.22R
Meriden        FAIR      63  55  75 S8        30.20R
New Haven      FAIR      55  49  80 S5        30.21R
Chester        FAIR      61  55  82 SW9       30.21R
Groton         FOG       47  46  97 CALM      30.22R VSB 1
Willimantic    FAIR      68  57  68 SW8       30.19R

 In RI

CITY           SKY/WX    TMP DP  RH WIND       PRES   REMARKS
Providence     FAIR      63  57  81 SW8       30.19R
Block Island   LGT RAIN  46  46 100 SW20      30.24R VSB 1/4
Westerly       FOG       49  49 100 SW3       30.23R VSB 1/4

In MA

CITY           SKY/WX    TMP DP  RH WIND       PRES   REMARKS
Boston         FAIR      66  56  70 SW14      30.13R
Worcester      MOCLDY    67  55  65 SW12      30.18R
Westfield      MOCLDY    65  52  62 NW17G28   30.22R
Provincetown   LGT RAIN  45  44  97 SW17      30.18R VSB 1/2
Nantucket      FOG       46  46 100 SW16      30.26R VSB 1/4
$$

ANZ330-335-338-340-345-350-353-355-220000-
Coastal Marine Observations


STATION/POSITION TIME  SKY/WX   TEMP    WIND        PRES    VSBY  WAVE
                                AIR SEA DIR/SP/G                  HT/PER
                 (UTC)          (F)     (DEG/KT/KT) (MB)    (MI)  (FT/S)
NY Harb Entrance 2250            47 42  190/ 14/ 16 1024.1          4/ 6
20 S Fire Island 2250            49 43  210/ 16/ 17 1024.7          5/ 5
15 E Barnegat Li 2230               42                N/A           4/ 5
Hudson Canyon    2250            51 47  220/ 16/ 17 1026.4          5/ 6
Kings Point      2242            71 38  240/ 11/ 15 1024.2
Execution Rocks  NOT AVBL
Western LI Sound NOT AVBL
Central LI Sound 2230            47     190/ 10/ 12   N/A           1
Robbins Reef     2248            74     220/ 12/ 15 1024.1
$$


>>>>>>>>>>>>>>>>>>>>>>>>>>>> KEY <<<<<<<<<<<<<<<<<<<<<<<<<<<
>                                                          <
>     SKY/WX - Sky Condition/Present Weather               <
>     TMP    - Temperature in Fahrenheit                   <
>     DP     - Dew Point in Fahrenheit                     <
>     RH     - Relative Humidity in Percent                <
>     WIND   - Direction (from) and Speed in MPH           <
>     PRES   - Mean Sea Level Pressure (inches of Hg)      <
>     WCI    - Wind Chill Index                            <
>     VSB    - Visibility in Miles                         <
>     HX     - Heat Index                                  <
>     TC     - Temperature in Celsius                      <
>     VRB    - Varibale Wind Direction                     <
>                                                          <
>>>>>>>>>>>>>>>>>>>>>>>>>>>> KEY <<<<<<<<<<<<<<<<<<<<<<<<<<<




USA.gov is the U.S. government's official web portal to all federal, state and local government web resources and services.